IRIDIUM 112

Last updated on Fri Sep 11 2026 00:03:06 GMT+0000 (Coordinated Universal Time)

1 41925U 17003J 26253.53021405 .00000018 00000+0 -51181-6 0 9991 2 41925 86.3929 52.5925 0002171 92.7675 267.3769 14.34217132505508
UTC large
Height (km)
Speed (km/s)
/
Latitude / Longitude
Inclination (degrees)
Orbital Period (minutes)
Azimuth
Elevation
Range (km)
Doppler Factor

Next 0 passes for location: London (51.5072 / 0.1276)

No passes found over London.
IRIDIUM 112